Location: Newark
(21.1700°N, 79.6500°E)
Time: 21:54:22
(UTC+00:00)

ISS - Visible Passes

Search period start: 11 December 2019 00:00
Search period end: 21 December 2019 00:00
Orbit: 411 x 421 km, 51.6° (Epoch: 12 December)

Date Brightness Start Highest point End Pass type
(mag) Time Alt. Az. Time Alt. Az. Time Alt. Az.
11 Dec -2.3 13:40:20 10° NW 13:42:19 33° NW 13:42:19 33° NW visible
12 Dec -3.5 12:51:58 10° NNW 12:55:11 45° NE 12:58:19 11° ESE visible
13 Dec -0.7 13:41:00 10° W 13:43:11 16° SW 13:45:21 10° SSW visible
14 Dec -1.9 12:51:40 10° WNW 12:54:45 35° SW 12:57:50 10° SSE visible
19 Dec -2.1 00:35:33 10° SSW 00:38:38 38° SE 00:41:44 10° ENE visible
19 Dec -0.7 23:47:52 10° SSE 23:50:09 17° SE 23:52:25 10° E visible
